Monterey, Australia

5:55 PM AEST on April 26, 2017 (GMT +1000)
Monterey

Weather History for 94767 - June, 2013

Change the Weather History Date:

Friday, June 21, 2013

  Actual Average Record
Temperature  
Mean Temperature 52 °F -  
Max Temperature 59 °F 62 °F - ()
Min Temperature 46 °F 45 °F - ()
Degree Days  
Heating Degree Days 12    
Growing Degree Days 2 (Base 50)    
Moisture  
Dew Point 45 °F    
Average Humidity 70    
Maximum Humidity 82    
Minimum Humidity 48    
Precipitation  
Precipitation 0.00 in 0.10 in - ()
Sea Level Pressure  
Sea Level Pressure 30.13 in    
Wind  
Wind Speed 9 mph ()    
Max Wind Speed 17 mph    
Max Gust Speed -    
Visibility 7.6 miles    
Events Rain    
T = Trace of Precipitation, MM = Missing Value Source: Averaged Metar Reports

Daily Weather History Graph

Daily Weather History Graph

Search for Another Location

Airport or City:

Trip Planner

Search our weather history database for the weather conditions in past years. The results will help you decide how hot, cold, wet, or windy it might be!

Date:

Astronomy

Jun. 21, 2013 Rise Set
Actual Time 7:00 AM AEST 4:53 PM AEST
Civil Twilight 6:32 AM AEST 5:21 PM AEST
Nautical Twilight 6:01 AM AEST 5:52 PM AEST
Astronomical Twilight 5:30 AM AEST 6:23 PM AEST
Moon 2:48 PM AEST (6/21) 4:03 AM AEST (6/21)
Length of Visible Light 10h 48m
Length of Day
9h 53m
Waxing Gibbous, 92% of the Moon is Illuminated
Jun 21
Waxing Gibbous
Jun 23
Full
Jun 30
Last Quarter
Jul 8
New
Jul 16
First Quarter

Hourly Weather History & Observations

Time (AEST) Temp. Windchill Dew Point Humidity Pressure Visibility Wind Dir Wind Speed Gust Speed Precip Events Conditions
12:00 AM 48 °F - 42 °F 71% 30.16 in 16 mi WNW 9.2 mph - -   Scattered Clouds
12:30 AM 48.2 °F - 41.0 °F 76% 30.12 in 6.2 mi WNW 6.9 mph - N/A   Mostly Cloudy
1:00 AM 47 °F - 42 °F 75% 30.15 in - NW 6.9 mph - -  
1:00 AM 46.4 °F 42.9 °F 41.0 °F 81% 30.12 in 6.2 mi NW 6.9 mph - N/A   Mostly Cloudy
1:30 AM 46.4 °F 42.4 °F 41.0 °F 81% 30.12 in 6.2 mi NW 8.1 mph - N/A   Mostly Cloudy
2:00 AM 46.4 °F 42.4 °F 41.0 °F 81% 30.12 in 6.2 mi North 8.1 mph - N/A   Mostly Cloudy
2:30 AM 46.4 °F 41.1 °F 41.0 °F 81% 30.12 in 6.2 mi WNW 11.5 mph - N/A   Mostly Cloudy
3:00 AM 48 °F - 41 °F 68% 30.13 in 16 mi West 12.7 mph - -   Scattered Clouds
3:00 AM 48.2 °F - 41.0 °F 76% 30.12 in 6.2 mi West 12.7 mph - N/A   Mostly Cloudy
3:30 AM 48.2 °F - 41.0 °F 76% 30.12 in 5.6 mi West 8.1 mph - N/A Rain Light Rain Showers
4:00 AM 49 °F - 41 °F 64% 30.14 in - North 5.8 mph - -  
4:00 AM 50.0 °F - 41.0 °F 71% 30.12 in 6.2 mi North 5.8 mph - N/A Rain Light Rain Showers
4:30 AM 48.2 °F - 41.0 °F 76% 30.12 in 6.2 mi WNW 10.4 mph - N/A   Mostly Cloudy
5:00 AM 46.4 °F 40.7 °F 41.0 °F 81% 30.12 in 6.2 mi NW 12.7 mph - N/A   Mostly Cloudy
5:30 AM 48.2 °F - 41.0 °F 76% 30.12 in 6.2 mi WNW 8.1 mph - N/A   Mostly Cloudy
6:00 AM 48 °F - 42 °F 73% 30.12 in 16 mi West 8.1 mph - -   Scattered Clouds
6:00 AM 48.2 °F - 42.8 °F 82% 30.12 in 6.2 mi West 8.1 mph - N/A   Mostly Cloudy
6:30 AM 50.0 °F - 41.0 °F 71% 30.12 in 6.2 mi West 6.9 mph - N/A   Mostly Cloudy
7:00 AM 49 °F - 42 °F 68% 30.14 in - North 8.1 mph - -  
7:00 AM 48.2 °F - 41.0 °F 76% 30.12 in 6.2 mi North 8.1 mph - N/A Rain Light Rain Showers
7:30 AM 48.2 °F - 41.0 °F 76% 30.12 in 6.2 mi WNW 9.2 mph - N/A   Scattered Clouds
8:00 AM 50.0 °F - 41.0 °F 71% 30.15 in 6.2 mi WNW 8.1 mph - N/A   Scattered Clouds
8:30 AM 51.8 °F - 41.0 °F 67% 30.15 in 6.2 mi NNW 6.9 mph - N/A   Scattered Clouds
9:00 AM 52 °F - 42 °F 58% 30.17 in 12 mi NNW 6.9 mph - -   Partly Cloudy
9:00 AM 51.8 °F - 41.0 °F 67% 30.15 in 6.2 mi NNW 6.9 mph - N/A   Scattered Clouds
9:30 AM 53.6 °F - 42.8 °F 67% 30.15 in 6.2 mi NW 9.2 mph - N/A   Partly Cloudy
10:00 AM 58 °F - 44 °F 48% 30.17 in - WNW 6.9 mph - -  
10:00 AM 59.0 °F - 42.8 °F 55% 30.15 in 6.2 mi WNW 6.9 mph - N/A   Partly Cloudy
10:30 AM 57.2 °F - 44.6 °F 63% 30.15 in 6.2 mi WSW 8.1 mph - N/A   Mostly Cloudy
11:00 AM 59.0 °F - 46.4 °F 63% 30.15 in 6.2 mi SW 11.5 mph - N/A   Partly Cloudy
11:30 AM 59.0 °F - 46.4 °F 63% 30.12 in 6.2 mi SSW 12.7 mph - N/A   Partly Cloudy
12:00 PM 59 °F - 47 °F 55% 30.13 in 16 mi SSW 15.0 mph - -   Partly Cloudy
12:00 PM 59.0 °F - 46.4 °F 63% 30.12 in 6.2 mi SSW 15.0 mph - N/A   Partly Cloudy
12:30 PM 59.0 °F - 48.2 °F 67% 30.09 in 6.2 mi South 15.0 mph - N/A   Partly Cloudy
1:00 PM 59 °F - 48 °F 58% 30.11 in - SSW 17.3 mph - -  
1:00 PM 59.0 °F - 48.2 °F 67% 30.09 in 6.2 mi SSW 17.3 mph - N/A   Partly Cloudy
1:30 PM 59.0 °F - 48.2 °F 67% 30.09 in 6.2 mi South 13.8 mph - N/A   Scattered Clouds
2:00 PM 59.0 °F - 48.2 °F 67% 30.09 in 6.2 mi South 13.8 mph - N/A   Partly Cloudy
2:30 PM 59.0 °F - 48.2 °F 67% 30.09 in 6.2 mi South 12.7 mph - N/A   Partly Cloudy
3:00 PM 58 °F - 47 °F 57% 30.10 in 16 mi South 12.7 mph - -   Haze
3:00 PM 59.0 °F - 46.4 °F 63% 30.09 in 6.2 mi South 12.7 mph - N/A   Partly Cloudy
3:30 PM 59.0 °F - 48.2 °F 67% 30.09 in 6.2 mi South 11.5 mph - N/A   Partly Cloudy
4:00 PM 58 °F - 46 °F 55% 30.11 in - South 10.4 mph - -  
4:00 PM 59.0 °F - 46.4 °F 63% 30.09 in 6.2 mi South 10.4 mph - N/A   Partly Cloudy
4:30 PM 59.0 °F - 46.4 °F 63% 30.09 in 6.2 mi SSW 10.4 mph - N/A   Partly Cloudy
5:00 PM 57.2 °F - 48.2 °F 72% 30.09 in 6.2 mi SSW 11.5 mph - N/A   Partly Cloudy
5:30 PM 57.2 °F - 48.2 °F 72% 30.09 in 6.2 mi SSW 9.2 mph - N/A   Partly Cloudy
6:00 PM 57 °F - 49 °F 65% 30.13 in 19 mi SSW 10.4 mph - -   Partly Cloudy
6:00 PM 57.2 °F - 48.2 °F 72% 30.12 in 6.2 mi SSW 10.4 mph - N/A   Scattered Clouds
6:30 PM 57.2 °F - 48.2 °F 72% 30.12 in 6.2 mi SSW 10.4 mph - N/A   Scattered Clouds
7:00 PM 56 °F - 46 °F 60% 30.15 in - SSW 11.5 mph - -  
7:00 PM 55.4 °F - 46.4 °F 72% 30.12 in 6.2 mi SSW 11.5 mph - N/A   Partly Cloudy
7:30 PM 55.4 °F - 46.4 °F 72% 30.15 in 6.2 mi SW 11.5 mph - N/A   Partly Cloudy
8:00 PM 57.2 °F - 48.2 °F 72% 30.15 in 6.2 mi South 10.4 mph - N/A   Partly Cloudy
8:30 PM 55.4 °F - 48.2 °F 77% 30.15 in 5.6 mi South 16.1 mph - N/A Rain Light Rain Showers
9:00 PM 55 °F - 46 °F 63% 30.18 in 19 mi South 10.4 mph - - Rain Light Rain Showers
9:00 PM 55.4 °F - 46.4 °F 72% 30.15 in 6.2 mi South 10.4 mph - N/A   Partly Cloudy
9:30 PM 53.6 °F - 48.2 °F 82% 30.18 in 6.2 mi SW 9.2 mph - N/A   Scattered Clouds
10:00 PM 53 °F - 47 °F 73% 30.19 in - SW 10.4 mph - -  
10:00 PM 53.6 °F - 46.4 °F 77% 30.18 in 6.2 mi SW 10.4 mph - N/A   Scattered Clouds
10:30 PM 51.8 °F - 46.4 °F 82% 30.18 in 6.2 mi SW 10.4 mph - N/A   Scattered Clouds
11:00 PM 53.6 °F - 48.2 °F 82% 30.18 in 6.2 mi SW 9.2 mph - N/A   Partly Cloudy
11:30 PM 53.6 °F - 44.6 °F 72% 30.18 in 6.2 mi South 12.7 mph - N/A   Scattered Clouds